User: anonymous   Login
Location: Sun City Center
(27.6996°N, 82.3528°W)
Time: 13:22:31
(UTC-05:00)
Language:

Cosmos 2084 Rocket - Orbit

View from above orbital plane
View from above orbital plane
View from above satellite
View from above satellite

Ground track
Ground track

The orbit data is extracted from the following two-line orbital elements,

1 20666U 90055D   18048.52100628 -.00000063 +00000-0 +12806-4 0  9995
2 20666 062.7847 047.3770 0110843 134.0664 226.9624 14.92084801497788
Epoch (UTC): 17 February 2018 12:30:14
Eccentricity: 0.0110843
inclination: 62.7847°
perigee height: 514 km
apogee height: 668 km
right ascension of ascending node: 47.3770°
argument of perigee: 134.0664°
revolutions per day: 14.92084801
mean anomaly at epoch: 226.9624°
orbit number at epoch: 49778

The dashed part of the orbit path shows where the satellite is in the earth's shadow,  

DLR